| time (UTC) | temp C | wind direction | speed KPH | gust KPH | rain 1hr cm | rain 24hr cm | rain mn cm | humidity % | barometer mb |
| 20260906100307 | 17 | 65 | 0.0 | 0.0 | 0.00 | 0.00 | 0.00 | 92 | 1017.6 |
| 20260906095807 | 17 | 65 | 0.0 | 0.0 | 0.00 | 0.00 | 0.00 | 92 | 1017.7 |
| 20260906095308 | 17 | 65 | 0.0 | 0.0 | 0.00 | 0.00 | 0.00 | 92 | 1017.7 |
| 20260906094808 | 17 | 65 | 0.0 | 0.0 | 0.00 | 0.00 | 0.00 | 92 | 1017.7 |
| 20260906094308 | 17 | 65 | 0.0 | 0.0 | 0.00 | 0.00 | 0.00 | 92 | 1017.6 |
| 20260906093808 | 17 | 65 | 0.0 | 0.0 | 0.00 | 0.00 | 0.00 | 92 | 1017.6 |
| 20260906093308 | 17 | 65 | 0.0 | 0.0 | 0.00 | 0.00 | 0.00 | 92 | 1017.6 |
| 20260906092807 | 17 | 65 | 0.0 | 0.0 | 0.00 | 0.00 | 0.00 | 92 | 1017.5 |
| 20260906092308 | 17 | 65 | 0.0 | 0.0 | 0.00 | 0.00 | 0.00 | 92 | 1017.5 |
| 20260906091807 | 17 | 65 | 0.0 | 0.0 | 0.00 | 0.00 | 0.00 | 92 | 1017.5 |
| 20260906091307 | 18 | 65 | 0.0 | 0.0 | 0.00 | 0.00 | 0.00 | 92 | 1017.5 |
| 20260906090808 | 18 | 65 | 0.0 | 0.0 | 0.00 | 0.00 | 0.00 | 91 | 1017.5 |
| 20260906090307 | 18 | 65 | 0.0 | 0.0 | 0.00 | 0.00 | 0.00 | 91 | 1017.4 |
| 20260906085808 | 18 | 65 | 0.0 | 0.0 | 0.00 | 0.00 | 0.00 | 91 | 1017.4 |
| 20260906085308 | 18 | 65 | 0.0 | 0.0 | 0.00 | 0.00 | 0.00 | 91 | 1017.4 |
| 20260906084808 | 18 | 65 | 0.0 | 0.0 | 0.00 | 0.00 | 0.00 | 91 | 1017.4 |
| 20260906084307 | 18 | 65 | 0.0 | 0.0 | 0.00 | 0.00 | 0.00 | 91 | 1017.3 |
| 20260906083808 | 18 | 65 | 0.0 | 0.0 | 0.00 | 0.00 | 0.00 | 91 | 1017.3 |
| 20260906083307 | 18 | 65 | 0.0 | 0.0 | 0.00 | 0.00 | 0.00 | 91 | 1017.2 |
| 20260906082807 | 18 | 65 | 0.0 | 0.0 | 0.00 | 0.00 | 0.00 | 90 | 1017.2 |
| 20260906082308 | 18 | 65 | 0.0 | 1.6 | 0.00 | 0.00 | 0.00 | 90 | 1017.2 |
| 20260906081807 | 18 | 65 | 0.0 | 1.6 | 0.00 | 0.00 | 0.00 | 90 | 1017.1 |
| 20260906081307 | 18 | 65 | 0.0 | 1.6 | 0.00 | 0.00 | 0.00 | 90 | 1017.1 |
| 20260906080808 | 19 | 65 | 0.0 | 0.0 | 0.00 | 0.00 | 0.00 | 90 | 1017.1 |
| 20260906080308 | 19 | 65 | 0.0 | 0.0 | 0.00 | 0.00 | 0.00 | 90 | 1017.0 |
| 20260906075808 | 19 | 65 | 0.0 | 0.0 | 0.00 | 0.00 | 0.00 | 90 | 1017.1 |
| 20260906075307 | 19 | 65 | 0.0 | 0.0 | 0.00 | 0.00 | 0.00 | 89 | 1017.1 |
| 20260906074808 | 20 | 65 | 0.0 | 0.0 | 0.00 | 0.00 | 0.00 | 89 | 1017.1 |
| 20260906074307 | 20 | 65 | 0.0 | 1.6 | 0.00 | 0.00 | 0.00 | 89 | 1017.1 |
| 20260906073807 | 20 | 65 | 0.0 | 1.6 | 0.00 | 0.00 | 0.00 | 89 | 1017.1 |
| 20260906073308 | 20 | 65 | 0.0 | 1.6 | 0.00 | 0.00 | 0.00 | 89 | 1017.2 |
| 20260906072808 | 20 | 49 | 0.0 | 0.0 | 0.00 | 0.00 | 0.00 | 89 | 1017.2 |
| 20260906072307 | 20 | 49 | 0.0 | 1.6 | 0.00 | 0.00 | 0.00 | 89 | 1017.2 |
| 20260906071808 | 20 | 49 | 0.0 | 1.6 | 0.00 | 0.00 | 0.00 | 89 | 1017.1 |
| 20260906071329 | 20 | 49 | 0.0 | 1.6 | 0.00 | 0.00 | 0.00 | 89 | 1017.1 |
| 20260906070808 | 20 | 49 | 0.0 | 1.6 | 0.00 | 0.00 | 0.00 | 89 | 1017.2 |
| 20260906070308 | 20 | 72 | 0.0 | 1.6 | 0.00 | 0.00 | 0.00 | 89 | 1017.2 |
| 20260906065808 | 20 | 59 | 0.0 | 1.6 | 0.00 | 0.00 | 0.00 | 89 | 1017.1 |
| 20260906065308 | 20 | 61 | 0.0 | 1.6 | 0.00 | 0.00 | 0.00 | 89 | 1017.1 |
| 20260906064809 | 20 | 5 | 0.0 | 1.6 | 0.00 | 0.00 | 0.00 | 88 | 1016.9 |
| 20260906064329 | 20 | 360 | 0.0 | 1.6 | 0.00 | 0.00 | 0.00 | 88 | 1017.0 |
| 20260906063807 | 20 | 355 | 0.0 | 1.6 | 0.00 | 0.00 | 0.00 | 88 | 1017.1 |
| 20260906063308 | 21 | 78 | 0.0 | 1.6 | 0.00 | 0.00 | 0.00 | 88 | 1017.2 |
| 20260906062808 | 21 | 84 | 0.0 | 1.6 | 0.00 | 0.00 | 0.00 | 88 | 1017.2 |
| 20260906062308 | 21 | 78 | 0.0 | 3.2 | 0.00 | 0.00 | 0.00 | 88 | 1017.1 |
| 20260906061829 | 21 | 78 | 0.0 | 8.0 | 0.00 | 0.00 | 0.00 | 88 | 1017.0 |
| 20260906061308 | 21 | 78 | 0.0 | 8.0 | 0.00 | 0.00 | 0.00 | 88 | 1017.1 |
| 20260906060808 | 21 | 49 | 0.0 | 8.0 | 0.00 | 0.00 | 0.00 | 88 | 1017.0 |
| 20260906060308 | 21 | 51 | 0.0 | 4.8 | 0.00 | 0.00 | 0.00 | 88 | 1017.0 |
| 20260906055808 | 21 | 324 | 0.0 | 6.4 | 0.00 | 0.00 | 0.00 | 88 | 1016.9 |
| 20260906055308 | 21 | 346 | 0.0 | 6.4 | 0.00 | 0.00 | 0.00 | 89 | 1016.9 |
| 20260906054808 | 21 | 79 | 0.0 | 6.4 | 0.00 | 0.00 | 0.00 | 89 | 1016.8 |
| 20260906054329 | 21 | 81 | 0.0 | 3.2 | 0.00 | 0.00 | 0.00 | 89 | 1016.7 |
| 20260906053829 | 21 | 86 | 0.0 | 3.2 | 0.00 | 0.00 | 0.00 | 89 | 1016.7 |
| 20260906053308 | 21 | 56 | 0.0 | 3.2 | 0.00 | 0.00 | 0.00 | 89 | 1016.7 |
| 20260906052808 | 21 | 16 | 0.0 | 1.6 | 0.00 | 0.00 | 0.00 | 89 | 1016.6 |
| 20260906052308 | 21 | 16 | 0.0 | 1.6 | 0.00 | 0.00 | 0.00 | 89 | 1016.6 |
| 20260906051829 | 21 | 16 | 0.0 | 0.0 | 0.00 | 0.00 | 0.00 | 89 | 1016.6 |
| 20260906051329 | 21 | 16 | 0.0 | 0.0 | 0.00 | 0.00 | 0.00 | 89 | 1016.6 |
| 20260906050808 | 21 | 16 | 0.0 | 1.6 | 0.00 | 0.00 | 0.00 | 89 | 1016.6 |
| 20260906050308 | 21 | 16 | 0.0 | 1.6 | 0.00 | 0.00 | 0.00 | 88 | 1016.5 |
| 20260906045808 | 21 | 16 | 0.0 | 1.6 | 0.00 | 0.00 | 0.00 | 88 | 1016.5 |
| 20260906045308 | 21 | 16 | 0.0 | 1.6 | 0.00 | 0.00 | 0.00 | 88 | 1016.5 |
| 20260906044808 | 21 | 16 | 0.0 | 1.6 | 0.00 | 0.00 | 0.00 | 88 | 1016.6 |
| 20260906044309 | 21 | 16 | 0.0 | 1.6 | 0.00 | 0.00 | 0.00 | 88 | 1016.5 |
| 20260906043829 | 22 | 46 | 0.0 | 1.6 | 0.00 | 0.00 | 0.00 | 87 | 1016.5 |
| 20260906043308 | 22 | 46 | 0.0 | 3.2 | 0.00 | 0.00 | 0.00 | 87 | 1016.4 |
| 20260906042829 | 22 | 46 | 0.0 | 3.2 | 0.00 | 0.00 | 0.00 | 87 | 1016.4 |
| 20260906042308 | 22 | 46 | 0.0 | 4.8 | 0.00 | 0.00 | 0.00 | 87 | 1016.4 |
| 20260906041829 | 22 | 22 | 0.0 | 4.8 | 0.00 | 0.00 | 0.00 | 87 | 1016.4 |
| 20260906041308 | 22 | 22 | 0.0 | 4.8 | 0.00 | 0.00 | 0.00 | 87 | 1016.4 |
| 20260906040808 | 22 | 10 | 0.0 | 3.2 | 0.00 | 0.00 | 0.00 | 87 | 1016.5 |
| 20260906040308 | 22 | 19 | 0.0 | 3.2 | 0.00 | 0.00 | 0.00 | 87 | 1016.5 |
| 20260906035808 | 22 | 19 | 1.6 | 3.2 | 0.00 | 0.00 | 0.00 | 87 | 1016.5 |
| 20260906035308 | 22 | 37 | 1.6 | 3.2 | 0.00 | 0.00 | 0.00 | 87 | 1016.5 |
| 20260906034808 | 22 | 84 | 1.6 | 3.2 | 0.00 | 0.00 | 0.00 | 87 | 1016.3 |
| 20260906034308 | 22 | 83 | 1.6 | 3.2 | 0.00 | 0.00 | 0.00 | 87 | 1016.2 |
| 20260906033808 | 22 | 67 | 1.6 | 6.4 | 0.00 | 0.00 | 0.00 | 87 | 1016.3 |
| 20260906033308 | 22 | 47 | 1.6 | 6.4 | 0.00 | 0.00 | 0.00 | 87 | 1016.2 |
| 20260906032808 | 22 | 348 | 1.6 | 6.4 | 0.00 | 0.00 | 0.00 | 87 | 1016.3 |
| 20260906032329 | 22 | 30 | 1.6 | 9.7 | 0.00 | 0.00 | 0.00 | 87 | 1016.2 |
| 20260906031829 | 22 | 9 | 1.6 | 9.7 | 0.00 | 0.00 | 0.00 | 87 | 1016.2 |
| 20260906031309 | 22 | 338 | 1.6 | 9.7 | 0.00 | 0.00 | 0.00 | 87 | 1016.2 |
| 20260906030808 | 22 | 30 | 1.6 | 3.2 | 0.00 | 0.00 | 0.00 | 87 | 1016.1 |
| 20260906030309 | 22 | 69 | 1.6 | 1.6 | 0.00 | 0.00 | 0.00 | 87 | 1016.2 |
| 20260906025808 | 22 | 24 | 1.6 | 1.6 | 0.00 | 0.00 | 0.00 | 87 | 1016.1 |
| 20260906025308 | 22 | 24 | 1.6 | 3.2 | 0.00 | 0.00 | 0.00 | 86 | 1016.2 |
| 20260906024809 | 22 | 74 | 1.6 | 3.2 | 0.00 | 0.00 | 0.00 | 86 | 1016.2 |
| 20260906024308 | 22 | 67 | 1.6 | 3.2 | 0.00 | 0.00 | 0.00 | 86 | 1016.0 |
| 20260906023808 | 22 | 51 | 1.6 | 3.2 | 0.00 | 0.00 | 0.00 | 86 | 1016.1 |
| 20260906023330 | 22 | 17 | 1.6 | 1.6 | 0.00 | 0.00 | 0.00 | 87 | 1016.0 |
| 20260906022808 | 22 | 57 | 1.6 | 4.8 | 0.00 | 0.00 | 0.00 | 86 | 1016.0 |
| 20260906022308 | 22 | 53 | 1.6 | 4.8 | 0.00 | 0.00 | 0.00 | 86 | 1016.1 |
| 20260906021830 | 22 | 59 | 1.6 | 4.8 | 0.00 | 0.00 | 0.00 | 86 | 1016.0 |
| 20260906021329 | 22 | 73 | 1.6 | 3.2 | 0.00 | 0.00 | 0.00 | 86 | 1015.8 |
| 20260906020830 | 22 | 82 | 1.6 | 3.2 | 0.00 | 0.00 | 0.00 | 86 | 1015.8 |
| 20260906020309 | 22 | 59 | 1.6 | 3.2 | 0.00 | 0.00 | 0.00 | 86 | 1015.7 |
| 20260906015809 | 22 | 59 | 1.6 | 3.2 | 0.00 | 0.00 | 0.00 | 86 | 1015.6 |
| 20260906015309 | 22 | 73 | 1.6 | 3.2 | 0.00 | 0.00 | 0.00 | 86 | 1015.6 |
| 20260906014809 | 22 | 16 | 1.6 | 3.2 | 0.00 | 0.00 | 0.00 | 86 | 1015.6 |
| 20260906014309 | 22 | 348 | 1.6 | 6.4 | 0.00 | 0.00 | 0.00 | 86 | 1015.4 |
| 20260906013809 | 22 | 5 | 1.6 | 6.4 | 0.00 | 0.00 | 0.00 | 86 | 1015.3 |
| 20260906013330 | 22 | 5 | 1.6 | 6.4 | 0.00 | 0.00 | 0.00 | 86 | 1015.4 |
| 20260906012808 | 22 | 34 | 1.6 | 1.6 | 0.00 | 0.00 | 0.00 | 86 | 1015.5 |
| 20260906012309 | 22 | 89 | 1.6 | 3.2 | 0.00 | 0.00 | 0.00 | 86 | 1015.4 |
| 20260906011808 | 22 | 89 | 1.6 | 6.4 | 0.00 | 0.00 | 0.00 | 86 | 1015.3 |
| 20260906011308 | 22 | 313 | 1.6 | 6.4 | 0.00 | 0.00 | 0.00 | 86 | 1015.1 |
| 20260906010809 | 22 | 82 | 1.6 | 6.4 | 0.00 | 0.00 | 0.00 | 86 | 1015.1 |
| 20260906010309 | 22 | 20 | 1.6 | 6.4 | 0.00 | 0.00 | 0.00 | 86 | 1015.1 |
| 20260906005808 | 22 | 74 | 1.6 | 6.4 | 0.00 | 0.00 | 0.00 | 86 | 1015.0 |
| 20260906005308 | 22 | 74 | 1.6 | 6.4 | 0.00 | 0.00 | 0.00 | 86 | 1015.0 |
| 20260906004809 | 22 | 48 | 1.6 | 9.7 | 0.00 | 0.00 | 0.00 | 86 | 1015.0 |
| 20260906004308 | 23 | 258 | 1.6 | 9.7 | 0.00 | 0.00 | 0.00 | 85 | 1014.9 |
| 20260906003808 | 23 | 24 | 1.6 | 9.7 | 0.00 | 0.00 | 0.00 | 86 | 1014.8 |
| 20260906003309 | 23 | 51 | 1.6 | 4.8 | 0.00 | 0.00 | 0.00 | 85 | 1014.8 |
| 20260906002809 | 23 | 43 | 1.6 | 6.4 | 0.00 | 0.00 | 0.00 | 85 | 1014.8 |
| 20260906002309 | 23 | 77 | 1.6 | 9.7 | 0.00 | 0.00 | 0.00 | 85 | 1014.8 |
| 20260906001809 | 23 | 46 | 1.6 | 9.7 | 0.00 | 0.00 | 0.00 | 85 | 1014.5 |
| 20260906001308 | 23 | 45 | 1.6 | 9.7 | 0.00 | 0.00 | 0.00 | 84 | 1014.4 |
| 20260906000808 | 23 | 19 | 1.6 | 8.0 | 0.00 | 0.00 | 0.00 | 83 | 1014.3 |
| 20260906000311 | 24 | 149 | 1.6 | 8.0 | 0.00 | 0.00 | 0.00 | 83 | 1014.4 |
| 20260905235808 | 24 | 360 | 1.6 | 8.0 | 0.00 | 0.00 | 0.00 | 82 | 1014.5 |
| 20260905235308 | 25 | 82 | 1.6 | 8.0 | 0.00 | 0.00 | 0.00 | 82 | 1014.4 |
| 20260905234808 | 25 | 138 | 1.6 | 8.0 | 0.00 | 0.00 | 0.00 | 83 | 1014.2 |
| 20260905234308 | 25 | 116 | 1.6 | 8.0 | 0.00 | 0.00 | 0.00 | 82 | 1014.0 |
| 20260905233829 | 25 | 30 | 1.6 | 11.3 | 0.00 | 0.00 | 0.00 | 82 | 1014.0 |
| 20260905233330 | 26 | 85 | 1.6 | 11.3 | 0.00 | 0.00 | 0.00 | 81 | 1014.0 |
| 20260905232808 | 26 | 74 | 1.6 | 11.3 | 0.00 | 0.00 | 0.00 | 80 | 1013.9 |
| 20260905232309 | 26 | 38 | 1.6 | 11.3 | 0.00 | 0.00 | 0.00 | 80 | 1013.7 |
| 20260905231830 | 26 | 94 | 1.6 | 11.3 | 0.00 | 0.00 | 0.00 | 79 | 1013.8 |
| 20260905231309 | 27 | 55 | 1.6 | 11.3 | 0.00 | 0.00 | 0.00 | 78 | 1013.6 |
| 20260905230809 | 27 | 332 | 1.6 | 11.3 | 0.00 | 0.00 | 0.00 | 78 | 1013.6 |
| 20260905230309 | 27 | 9 | 1.6 | 9.7 | 0.00 | 0.00 | 0.00 | 79 | 1013.6 |
| 20260905225809 | 27 | 58 | 1.6 | 9.7 | 0.00 | 0.00 | 0.00 | 78 | 1013.6 |
| 20260905225308 | 27 | 57 | 1.6 | 9.7 | 0.00 | 0.00 | 0.00 | 78 | 1013.6 |
| 20260905224809 | 27 | 61 | 1.6 | 8.0 | 0.00 | 0.00 | 0.00 | 78 | 1013.5 |
| 20260905224309 | 27 | 49 | 1.6 | 9.7 | 0.00 | 0.00 | 0.00 | 78 | 1013.4 |
| 20260905223808 | 27 | 5 | 1.6 | 9.7 | 0.00 | 0.00 | 0.00 | 77 | 1013.4 |
| 20260905223309 | 27 | 64 | 1.6 | 11.3 | 0.00 | 0.00 | 0.00 | 76 | 1013.4 |
| 20260905222809 | 27 | 18 | 1.6 | 11.3 | 0.00 | 0.00 | 0.00 | 75 | 1013.3 |
| 20260905222308 | 28 | 115 | 1.6 | 11.3 | 0.00 | 0.00 | 0.00 | 74 | 1013.2 |
| 20260905221830 | 28 | 49 | 1.6 | 11.3 | 0.00 | 0.00 | 0.00 | 73 | 1013.0 |
| 20260905221308 | 28 | 342 | 1.6 | 8.0 | 0.00 | 0.00 | 0.00 | 73 | 1013.0 |
| 20260905220809 | 28 | 135 | 1.6 | 8.0 | 0.00 | 0.00 | 0.00 | 73 | 1013.0 |
| 20260905220309 | 29 | 327 | 1.6 | 8.0 | 0.00 | 0.00 | 0.00 | 72 | 1012.9 |
| 20260905215808 | 30 | 5 | 1.6 | 8.0 | 0.00 | 0.00 | 0.00 | 71 | 1012.9 |
| 20260905215308 | 30 | 74 | 1.6 | 8.0 | 0.00 | 0.00 | 0.00 | 71 | 1012.9 |
| 20260905214809 | 30 | 60 | 1.6 | 8.0 | 0.00 | 0.00 | 0.00 | 71 | 1012.9 |
| 20260905214329 | 30 | 360 | 1.6 | 8.0 | 0.00 | 0.00 | 0.00 | 73 | 1012.9 |
| 20260905213830 | 29 | 40 | 1.6 | 11.3 | 0.00 | 0.00 | 0.00 | 74 | 1012.9 |
| 20260905213309 | 29 | 66 | 1.6 | 12.9 | 0.00 | 0.00 | 0.00 | 73 | 1012.9 |
| 20260905212808 | 29 | 146 | 1.6 | 12.9 | 0.00 | 0.00 | 0.00 | 73 | 1012.9 |
| 20260905212309 | 29 | 30 | 1.6 | 12.9 | 0.00 | 0.00 | 0.00 | 74 | 1012.9 |
| 20260905211809 | 29 | 40 | 1.6 | 8.0 | 0.00 | 0.00 | 0.00 | 73 | 1012.8 |
| 20260905211309 | 30 | 10 | 1.6 | 8.0 | 0.00 | 0.00 | 0.00 | 72 | 1012.8 |
| 20260905210809 | 30 | 98 | 1.6 | 8.0 | 0.00 | 0.00 | 0.00 | 75 | 1012.8 |
| 20260905210308 | 29 | 67 | 1.6 | 9.7 | 0.00 | 0.00 | 0.00 | 75 | 1012.9 |
| 20260905205830 | 29 | 355 | 1.6 | 9.7 | 0.00 | 0.00 | 0.00 | 75 | 1012.8 |
| 20260905205309 | 29 | 360 | 1.6 | 9.7 | 0.00 | 0.00 | 0.00 | 73 | 1012.7 |
| 20260905204809 | 30 | 74 | 1.6 | 12.9 | 0.00 | 0.00 | 0.00 | 72 | 1012.7 |
| 20260905204330 | 30 | 9 | 1.6 | 12.9 | 0.00 | 0.00 | 0.00 | 72 | 1012.7 |
| 20260905203809 | 30 | 360 | 1.6 | 11.3 | 0.00 | 0.00 | 0.00 | 71 | 1012.8 |
| 20260905203330 | 31 | 84 | 1.6 | 8.0 | 0.00 | 0.00 | 0.00 | 70 | 1012.8 |
| 20260905202830 | 31 | 49 | 1.6 | 11.3 | 0.00 | 0.00 | 0.00 | 72 | 1012.8 |
| 20260905202309 | 31 | 42 | 1.6 | 11.3 | 0.00 | 0.00 | 0.00 | 70 | 1012.7 |
| 20260905201809 | 30 | 100 | 1.6 | 11.3 | 0.00 | 0.00 | 0.00 | 73 | 1012.7 |
| 20260905201309 | 31 | 44 | 1.6 | 11.3 | 0.00 | 0.00 | 0.00 | 70 | 1012.9 |
| 20260905200830 | 31 | 339 | 1.6 | 11.3 | 0.00 | 0.00 | 0.00 | 72 | 1013.0 |
| 20260905200309 | 31 | 80 | 1.6 | 11.3 | 0.00 | 0.00 | 0.00 | 72 | 1013.0 |
| 20260905195809 | 30 | 35 | 1.6 | 6.4 | 0.00 | 0.00 | 0.00 | 74 | 1013.0 |
| 20260905195309 | 30 | 78 | 1.6 | 8.0 | 0.00 | 0.00 | 0.00 | 74 | 1013.0 |
| 20260905194809 | 30 | 344 | 1.6 | 8.0 | 0.00 | 0.00 | 0.00 | 74 | 1013.1 |
| 20260905194309 | 30 | 241 | 1.6 | 8.0 | 0.00 | 0.00 | 0.00 | 73 | 1013.1 |
| 20260905193809 | 30 | 40 | 1.6 | 9.7 | 0.00 | 0.00 | 0.00 | 73 | 1013.0 |
| 20260905193309 | 30 | 5 | 1.6 | 9.7 | 0.00 | 0.00 | 0.00 | 73 | 1013.1 |
| 20260905192830 | 31 | 63 | 1.6 | 9.7 | 0.00 | 0.00 | 0.00 | 72 | 1013.1 |
| 20260905192330 | 31 | 355 | 1.6 | 8.0 | 0.00 | 0.00 | 0.00 | 70 | 1013.0 |
| 20260905191830 | 30 | 91 | 1.6 | 6.4 | 0.00 | 0.00 | 0.00 | 75 | 1013.0 |
| 20260905191309 | 30 | 51 | 1.6 | 6.4 | 0.00 | 0.00 | 0.00 | 77 | 1013.1 |
| 20260905190809 | 30 | 54 | 1.6 | 6.4 | 0.00 | 0.00 | 0.00 | 76 | 1013.2 |
| 20260905190309 | 30 | 355 | 1.6 | 6.4 | 0.00 | 0.00 | 0.00 | 75 | 1013.2 |
| 20260905185809 | 30 | 14 | 1.6 | 6.4 | 0.00 | 0.00 | 0.00 | 75 | 1013.2 |
| 20260905185309 | 30 | 75 | 1.6 | 6.4 | 0.00 | 0.00 | 0.00 | 76 | 1013.3 |
| 20260905184809 | 29 | 89 | 1.6 | 6.4 | 0.00 | 0.00 | 0.00 | 76 | 1013.3 |
| 20260905184309 | 30 | 85 | 1.6 | 6.4 | 0.00 | 0.00 | 0.00 | 74 | 1013.2 |
| 20260905183809 | 30 | 318 | 1.6 | 9.7 | 0.00 | 0.00 | 0.00 | 77 | 1013.2 |
| 20260905183310 | 29 | 319 | 1.6 | 9.7 | 0.00 | 0.00 | 0.00 | 76 | 1013.1 |
| 20260905182831 | 29 | 170 | 1.6 | 9.7 | 0.00 | 0.00 | 0.00 | 77 | 1013.2 |
| 20260905182309 | 28 | 232 | 1.6 | 3.2 | 0.00 | 0.00 | 0.00 | 79 | 1013.3 |
| 20260905181810 | 28 | 137 | 1.6 | 3.2 | 0.00 | 0.00 | 0.00 | 80 | 1013.4 |
| 20260905181309 | 28 | 143 | 1.6 | 3.2 | 0.00 | 0.00 | 0.00 | 82 | 1013.4 |
| 20260905180809 | 28 | 143 | 1.6 | 3.2 | 0.00 | 0.00 | 0.00 | 81 | 1013.3 |
| 20260905180310 | 28 | 157 | 1.6 | 3.2 | 0.00 | 0.00 | 0.00 | 81 | 1013.3 |
| 20260905175830 | 28 | 157 | 1.6 | 8.0 | 0.00 | 0.00 | 0.00 | 80 | 1013.5 |
| 20260905175309 | 28 | 157 | 1.6 | 8.0 | 0.00 | 0.00 | 0.00 | 80 | 1013.5 |
| 20260905174810 | 28 | 231 | 1.6 | 8.0 | 0.00 | 0.00 | 0.00 | 77 | 1013.6 |
| 20260905174309 | 29 | 291 | 1.6 | 8.0 | 0.00 | 0.00 | 0.00 | 77 | 1013.5 |
| 20260905173831 | 28 | 215 | 1.6 | 8.0 | 0.00 | 0.00 | 0.00 | 77 | 1013.4 |
| 20260905173309 | 29 | 121 | 1.6 | 8.0 | 0.00 | 0.00 | 0.00 | 79 | 1013.5 |
| 20260905172810 | 28 | 141 | 1.6 | 8.0 | 0.00 | 0.03 | 0.00 | 78 | 1013.7 |
| 20260905172309 | 28 | 226 | 1.6 | 8.0 | 0.00 | 0.18 | 0.00 | 79 | 1013.7 |
| 20260905171809 | 28 | 175 | 1.6 | 8.0 | 0.00 | 0.28 | 0.00 | 80 | 1013.6 |
| 20260905171309 | 27 | 155 | 1.6 | 8.0 | 0.00 | 0.28 | 0.00 | 79 | 1013.6 |
| 20260905170830 | 28 | 190 | 1.6 | 8.0 | 0.00 | 0.28 | 0.00 | 79 | 1013.7 |
| 20260905170310 | 27 | 155 | 1.6 | 8.0 | 0.00 | 0.28 | 0.00 | 81 | 1013.9 |
| 20260905165809 | 28 | 173 | 1.6 | 8.0 | 0.00 | 0.28 | 0.00 | 79 | 1013.8 |
| 20260905165330 | 28 | 247 | 0.0 | 8.0 | 0.00 | 0.28 | 0.00 | 77 | 1013.9 |
| 20260905164809 | 28 | 182 | 0.0 | 8.0 | 0.00 | 0.28 | 0.00 | 79 | 1013.8 |
| 20260905164309 | 27 | 225 | 0.0 | 8.0 | 0.00 | 0.28 | 0.00 | 81 | 1014.0 |
| 20260905163809 | 27 | 179 | 0.0 | 8.0 | 0.00 | 0.28 | 0.00 | 81 | 1013.9 |
| 20260905163309 | 27 | 177 | 0.0 | 6.4 | 0.00 | 0.28 | 0.00 | 80 | 1013.9 |
| 20260905162809 | 27 | 190 | 0.0 | 8.0 | 0.00 | 0.28 | 0.00 | 82 | 1014.0 |
| 20260905162309 | 27 | 205 | 0.0 | 8.0 | 0.00 | 0.28 | 0.00 | 80 | 1014.0 |
| 20260905161809 | 27 | 161 | 0.0 | 8.0 | 0.00 | 0.28 | 0.00 | 83 | 1014.1 |
| 20260905161309 | 27 | 162 | 0.0 | 8.0 | 0.00 | 0.28 | 0.00 | 83 | 1014.2 |
| 20260905160810 | 27 | 192 | 0.0 | 8.0 | 0.00 | 0.28 | 0.00 | 82 | 1014.1 |
| 20260905160330 | 26 | 169 | 0.0 | 6.4 | 0.00 | 0.28 | 0.00 | 83 | 1014.2 |
| 20260905155809 | 26 | 165 | 0.0 | 6.4 | 0.00 | 0.28 | 0.00 | 83 | 1014.1 |
| 20260905155309 | 26 | 248 | 0.0 | 6.4 | 0.00 | 0.28 | 0.00 | 83 | 1014.1 |
| 20260905154809 | 26 | 118 | 0.0 | 6.4 | 0.00 | 0.28 | 0.00 | 83 | 1014.1 |
| 20260905154330 | 26 | 118 | 0.0 | 6.4 | 0.00 | 0.28 | 0.00 | 83 | 1014.0 |
| 20260905153809 | 26 | 203 | 0.0 | 4.8 | 0.00 | 0.28 | 0.00 | 82 | 1014.1 |
| 20260905153309 | 26 | 348 | 0.0 | 4.8 | 0.00 | 0.28 | 0.00 | 82 | 1014.1 |
| 20260905152809 | 26 | 188 | 0.0 | 4.8 | 0.00 | 0.28 | 0.00 | 82 | 1014.1 |
| 20260905152330 | 27 | 347 | 0.0 | 3.2 | 0.00 | 0.28 | 0.00 | 82 | 1014.1 |
| 20260905151810 | 26 | 355 | 0.0 | 6.4 | 0.00 | 0.28 | 0.00 | 84 | 1014.1 |
| 20260905151310 | 26 | 5 | 0.0 | 6.4 | 0.00 | 0.28 | 0.00 | 85 | 1013.9 |
| 20260905150810 | 26 | 55 | 0.0 | 6.4 | 0.00 | 0.28 | 0.00 | 85 | 1013.9 |
| 20260905150310 | 25 | 187 | 0.0 | 6.4 | 0.00 | 0.28 | 0.00 | 85 | 1014.0 |
| 20260905145810 | 25 | 355 | 0.0 | 3.2 | 0.00 | 0.28 | 0.00 | 86 | 1014.0 |
| 20260905145330 | 25 | 273 | 0.0 | 1.6 | 0.00 | 0.28 | 0.00 | 86 | 1013.9 |
| 20260905144810 | 25 | 105 | 0.0 | 3.2 | 0.00 | 0.28 | 0.00 | 87 | 1014.0 |
| 20260905144310 | 25 | 105 | 0.0 | 3.2 | 0.00 | 0.28 | 0.00 | 86 | 1014.2 |
| 20260905143831 | 25 | 105 | 0.0 | 3.2 | 0.00 | 0.28 | 0.00 | 86 | 1014.3 |
| 20260905143309 | 25 | 5 | 0.0 | 3.2 | 0.00 | 0.28 | 0.00 | 86 | 1014.2 |
| 20260905142830 | 25 | 62 | 0.0 | 3.2 | 0.00 | 0.28 | 0.00 | 87 | 1014.1 |
| 20260905142309 | 25 | 329 | 0.0 | 1.6 | 0.00 | 0.28 | 0.00 | 87 | 1014.0 |
| 20260905141810 | 25 | 329 | 0.0 | 3.2 | 0.00 | 0.28 | 0.00 | 87 | 1014.0 |
| 20260905141330 | 24 | 317 | 0.0 | 3.2 | 0.00 | 0.28 | 0.00 | 87 | 1014.1 |
| 20260905140810 | 24 | 53 | 0.0 | 3.2 | 0.00 | 0.28 | 0.00 | 88 | 1013.9 |
| 20260905140310 | 24 | 130 | 0.0 | 3.2 | 0.00 | 0.28 | 0.00 | 87 | 1014.0 |
| 20260905135810 | 24 | 150 | 0.0 | 3.2 | 0.00 | 0.28 | 0.00 | 88 | 1013.9 |
| 20260905135309 | 24 | 28 | 0.0 | 1.6 | 0.00 | 0.28 | 0.00 | 89 | 1013.8 |
| 20260905134810 | 23 | 319 | 0.0 | 1.6 | 0.00 | 0.28 | 0.00 | 89 | 1013.8 |
| 20260905134309 | 23 | 134 | 0.0 | 1.6 | 0.00 | 0.28 | 0.00 | 90 | 1013.9 |
| 20260905133810 | 23 | 134 | 0.0 | 1.6 | 0.00 | 0.28 | 0.00 | 90 | 1013.9 |
| 20260905133309 | 23 | 134 | 0.0 | 1.6 | 0.00 | 0.28 | 0.00 | 90 | 1013.9 |
| 20260905132810 | 23 | 134 | 0.0 | 4.8 | 0.00 | 0.28 | 0.00 | 90 | 1013.8 |
| 20260905132309 | 23 | 134 | 0.0 | 4.8 | 0.00 | 0.28 | 0.00 | 90 | 1013.7 |
| 20260905131810 | 23 | 140 | 0.0 | 4.8 | 0.00 | 0.28 | 0.00 | 90 | 1013.7 |
| 20260905131310 | 23 | 184 | 0.0 | 3.2 | 0.00 | 0.28 | 0.00 | 91 | 1013.7 |
| 20260905130810 | 23 | 241 | 0.0 | 4.8 | 0.00 | 0.28 | 0.00 | 91 | 1013.6 |
| 20260905130309 | 23 | 241 | 0.0 | 6.4 | 0.00 | 0.28 | 0.00 | 91 | 1013.7 |
| 20260905125810 | 23 | 241 | 0.0 | 6.4 | 0.00 | 0.28 | 0.00 | 91 | 1013.7 |
| 20260905125310 | 23 | 80 | 0.0 | 8.0 | 0.00 | 0.28 | 0.00 | 91 | 1013.5 |
| 20260905124810 | 22 | 171 | 0.0 | 8.0 | 0.00 | 0.28 | 0.00 | 91 | 1013.4 |
| 20260905124310 | 22 | 143 | 0.0 | 8.0 | 0.00 | 0.28 | 0.00 | 91 | 1013.4 |
| 20260905123810 | 22 | 179 | 0.0 | 6.4 | 0.00 | 0.28 | 0.00 | 92 | 1013.4 |
| 20260905123310 | 22 | 243 | 0.0 | 6.4 | 0.00 | 0.28 | 0.00 | 92 | 1013.4 |
| 20260905122830 | 22 | 208 | 0.0 | 6.4 | 0.00 | 0.28 | 0.00 | 92 | 1013.2 |
| 20260905122310 | 22 | 167 | 0.0 | 6.4 | 0.00 | 0.28 | 0.00 | 92 | 1013.3 |
| 20260905121810 | 22 | 182 | 0.0 | 1.6 | 0.00 | 0.28 | 0.00 | 92 | 1013.1 |
| 20260905121331 | 22 | 182 | 0.0 | 4.8 | 0.00 | 0.28 | 0.00 | 92 | 1013.2 |
| 20260905120810 | 22 | 182 | 0.0 | 4.8 | 0.00 | 0.28 | 0.00 | 92 | 1013.2 |
| 20260905120310 | 22 | 182 | 0.0 | 4.8 | 0.00 | 0.28 | 0.00 | 92 | 1013.2 |
| 20260905115810 | 22 | 175 | 0.0 | 3.2 | 0.00 | 0.28 | 0.00 | 92 | 1013.1 |
| 20260905115310 | 22 | 175 | 0.0 | 1.6 | 0.00 | 0.28 | 0.00 | 92 | 1013.0 |
| 20260905114810 | 22 | 175 | 0.0 | 1.6 | 0.00 | 0.28 | 0.00 | 92 | 1013.1 |
| 20260905114310 | 22 | 175 | 0.0 | 1.6 | 0.00 | 0.28 | 0.00 | 92 | 1013.1 |
| 20260905113810 | 22 | 175 | 0.0 | 3.2 | 0.00 | 0.28 | 0.00 | 92 | 1013.0 |
| 20260905113310 | 22 | 180 | 0.0 | 3.2 | 0.00 | 0.28 | 0.00 | 92 | 1012.9 |
| 20260905112810 | 22 | 180 | 0.0 | 3.2 | 0.00 | 0.28 | 0.00 | 92 | 1012.9 |
| 20260905112331 | 22 | 180 | 0.0 | 3.2 | 0.00 | 0.28 | 0.00 | 92 | 1012.8 |
| 20260905111810 | 22 | 155 | 0.0 | 3.2 | 0.00 | 0.28 | 0.00 | 92 | 1012.8 |
| 20260905111331 | 22 | 155 | 0.0 | 6.4 | 0.00 | 0.28 | 0.00 | 92 | 1012.7 |
| 20260905110810 | 22 | 207 | 0.0 | 6.4 | 0.00 | 0.28 | 0.00 | 92 | 1012.7 |
| 20260905110310 | 22 | 207 | 0.0 | 6.4 | 0.00 | 0.28 | 0.00 | 92 | 1012.5 |
| 20260905105831 | 22 | 172 | 0.0 | 8.0 | 0.00 | 0.28 | 0.00 | 92 | 1012.6 |
| 20260905105332 | 22 | 172 | 0.0 | 8.0 | 0.00 | 0.28 | 0.00 | 93 | 1012.5 |
| 20260905104810 | 22 | 169 | 0.0 | 8.0 | 0.00 | 0.28 | 0.00 | 93 | 1012.4 |
| 20260905104310 | 22 | 229 | 0.0 | 3.2 | 0.00 | 0.28 | 0.00 | 93 | 1012.4 |
| 20260905103810 | 22 | 229 | 0.0 | 6.4 | 0.00 | 0.28 | 0.00 | 93 | 1012.5 |
| 20260905103310 | 22 | 229 | 0.0 | 6.4 | 0.00 | 0.28 | 0.00 | 93 | 1012.4 |
| 20260905102810 | 22 | 167 | 0.0 | 3.2 | 0.00 | 0.28 | 0.00 | 93 | 1012.4 |
| 20260905102310 | 21 | 181 | 0.0 | 3.2 | 0.00 | 0.28 | 0.00 | 93 | 1012.3 |
| 20260905101831 | 21 | 180 | 0.0 | 0.0 | 0.00 | 0.28 | 0.00 | 93 | 1012.4 |
| 20260905101310 | 21 | 180 | 0.0 | 0.0 | 0.00 | 0.28 | 0.00 | 92 | 1012.4 |
| 20260905100811 | 21 | 180 | 0.0 | 0.0 | 0.00 | 0.28 | 0.00 | 93 | 1012.3 |